カタログに戻る

SL-16 DEB

LostLEO
NORAD 42234·DEBRIS·🇷🇺 Russia

打ち上げ Mar 26, 1993 から Baikonur Cosmodrome

Loading…

次のパス (今後24時間)

TLE

古いSource: Space-Track

元期: Sep 12, 2022, 10:50 UTC

1 42234U 93016CN  22255.45164883  .00004671  00000-0  18319-2 0  9991
2 42234  70.9879 285.2066 0116242  62.1338 299.1508 14.26219982413450

AllMySatでSL-16 DEBをリアルタイム追跡

Download on the App Store